Location: Newark
(54.2500°N, 9.1833°E)
Time: 17:53:47
(UTC+00:00)

A-11 Canister half - All Passes

Search period start: 15 December 2019 00:00
Search period end: 25 December 2019 00:00
Orbit: 1526 x 1683 km, 47.3° (Epoch: 14 December)

Date Brightness Start Highest point End Pass type
(mag) Time Alt. Az. Time Alt. Az. Time Alt. Az.
15 Dec - 03:18:47 10° S 03:26:42 27° SE 03:34:40 10° E visible
15 Dec - 05:20:35 10° SW 05:30:12 51° SSE 05:39:50 10° E visible
15 Dec - 07:24:36 10° W 07:34:30 59° S 07:44:15 10° ESE daylight
15 Dec - 09:29:19 10° W 09:38:32 41° SSW 09:47:34 10° SE daylight
15 Dec - 11:35:33 10° W 11:41:26 17° SW 11:47:15 10° SSW daylight
16 Dec - 02:57:23 10° S 03:05:09 26° SE 03:12:58 10° E visible
16 Dec - 04:59:00 10° SW 05:08:35 50° SSE 05:18:11 10° E visible
16 Dec - 07:02:58 10° W 07:12:51 59° S 07:22:38 10° ESE daylight
16 Dec - 09:07:39 10° W 09:16:56 43° SSW 09:26:02 10° SE daylight
16 Dec - 11:13:43 10° W 11:19:54 18° SW 11:26:01 10° SSW daylight
17 Dec - 02:35:59 10° S 02:43:35 25° SE 02:51:13 10° E visible
17 Dec - 04:37:25 10° SW 04:46:58 49° SSE 04:56:32 10° E visible
17 Dec - 06:41:20 10° WSW 06:51:13 59° S 07:01:02 10° ESE visible
17 Dec - 08:45:59 10° W 08:55:19 44° SSW 09:04:31 10° SE daylight
17 Dec - 10:51:54 10° W 10:58:22 20° SW 11:04:45 10° S daylight
18 Dec - 02:14:37 10° S 02:22:01 24° SE 02:29:30 10° E visible
18 Dec - 04:15:52 10° SW 04:25:21 48° SSE 04:34:53 10° E visible
18 Dec - 06:19:42 10° WSW 06:29:35 59° S 06:39:24 10° ESE visible
18 Dec - 08:24:19 10° W 08:33:43 45° SSW 08:42:58 10° SE daylight
18 Dec - 10:30:06 10° W 10:36:49 21° SW 10:43:28 10° S daylight
19 Dec - 01:53:15 10° S 02:00:28 23° SE 02:07:45 10° E visible
19 Dec - 03:54:18 10° SW 04:03:44 47° SSE 04:13:14 10° E visible
19 Dec - 05:58:03 10° WSW 06:07:57 60° S 06:17:47 10° ESE visible
19 Dec - 08:02:39 10° W 08:12:07 46° SSW 08:21:26 10° SE daylight
19 Dec - 10:08:19 10° W 10:15:17 22° SW 10:22:09 10° S daylight
20 Dec - 01:31:55 10° S 01:38:55 22° SE 01:45:59 10° E visible
20 Dec - 03:32:44 10° SW 03:42:07 46° SSE 03:51:36 10° E visible
20 Dec - 05:36:26 10° WSW 05:46:18 60° S 05:56:10 10° ESE visible
20 Dec - 07:41:00 10° W 07:50:30 47° SSW 07:59:53 10° SE daylight
20 Dec - 09:46:33 10° W 09:53:44 23° SW 10:00:50 10° S daylight
21 Dec - 01:10:36 10° S 01:17:22 21° SE 01:24:13 10° E visible
21 Dec - 03:11:12 10° SW 03:20:30 45° SSE 03:29:55 10° E visible
21 Dec - 05:14:49 10° WSW 05:24:40 59° S 05:34:32 10° ESE visible
21 Dec - 07:19:21 10° W 07:28:53 48° SSW 07:38:19 10° SE daylight
21 Dec - 09:24:47 10° W 09:32:10 24° SW 09:39:30 10° S daylight
22 Dec - 00:49:18 10° S 00:55:49 20° SE 01:02:26 10° E visible
22 Dec - 02:49:39 10° SW 02:58:54 44° SSE 03:08:16 10° E visible
22 Dec - 04:53:11 10° WSW 05:03:02 59° S 05:12:54 10° ESE visible
22 Dec - 06:57:42 10° W 07:07:16 49° SSW 07:16:46 10° SE visible
22 Dec - 09:03:04 10° W 09:10:37 25° SW 09:18:07 10° S daylight
23 Dec - 00:28:01 10° S 00:34:17 19° SE 00:40:37 10° E visible
23 Dec - 02:28:07 10° SW 02:37:18 43° SSE 02:46:37 10° E visible
23 Dec - 04:31:34 10° WSW 04:41:23 59° S 04:51:16 10° E visible
23 Dec - 06:36:03 10° W 06:45:39 50° SSW 06:55:12 10° SE visible
23 Dec - 08:41:19 10° W 08:49:04 26° SW 08:56:44 10° S daylight
24 Dec - 00:06:46 10° SSE 00:12:45 18° SE 00:18:47 10° E visible
24 Dec - 02:06:36 10° SW 02:15:41 42° SSE 02:24:57 10° E visible
24 Dec - 04:09:57 10° WSW 04:19:45 59° S 04:29:38 10° E visible
24 Dec - 06:14:24 10° W 06:24:02 51° SSW 06:33:37 10° SE visible
24 Dec - 08:19:36 10° W 08:27:30 27° SW 08:35:20 10° S daylight
24 Dec - 23:45:34 10° SSE 23:51:13 17° SE 23:56:56 10° E visible
